Simultaneous Nadir Overpasses (SNOs) Predictions

Prediction of SNOs between GOES-15 and TERRA Satellite Orbit:

Table of predicted SNOs for the next 14.0 days since TLE Epoch: 8/24/2024
Index Date Time (GOES-15) GOES-15 Lat,Lon TERRA Lat,Lon Distance(km) Time Diff (sec)
1 08/24/2024 05:42:54 -0.19, 61.55 0.21, 59.68 212.15 80
2 08/26/2024 05:27:50 -0.17, 61.52 -0.70, 63.96 277.11 80
3 08/26/2024 17:45:09 0.21, 61.64 -0.31, 59.10 288.29 80
4 08/28/2024 17:30:04 0.19, 61.62 0.58, 63.38 200.57 80
5 08/29/2024 05:47:14 -0.22, 61.49 0.37, 58.55 334.08 80
6 08/31/2024 05:32:08 -0.21, 61.47 -0.51, 62.83 154.95 80
7 08/31/2024 17:49:26 0.24, 61.59 -0.55, 57.98 410.31 80
8 09/02/2024 17:34:20 0.23, 61.57 0.38, 62.26 79.00 80
9 09/03/2024 05:51:29 -0.25, 61.44 0.60, 57.44 455.51 80
10 09/05/2024 05:36:22 -0.24, 61.43 -0.31, 61.73 34.10 80
